VK1ET-13 Weather Reports


time (UTC)temp
F
wind
direction
speed
knots
gust
knots
rain 1hr
in
rain 24hr
in
rain mn
in
humidity
%
barometer
mb
20260905083517 56 280 8.7 16.5 0.00 0.00 0.00 77 1009.3
20260905082530 56 275 7.0 14.8 0.00 0.00 0.00 78 1009.2
20260905081530 56 303 7.8 15.6 0.00 0.00 0.00 78 1009.2
20260905080517 55 302 8.7 16.5 0.00 0.00 0.00 78 1008.9
20260905075529 55 305 7.8 13.9 0.00 0.00 0.00 78 1009.3
20260905074529 55 297 7.0 13.9 0.00 0.00 0.00 78 1009.1
20260905073516 55 304 7.0 12.2 0.00 0.00 0.00 80 1008.9
20260905072522 55 302 7.0 17.4 0.00 0.00 0.00 82 1009.2
20260905071529 55 304 7.0 14.8 0.00 0.00 0.00 87 1009.1
20260905070550 55 283 7.0 13.0 0.00 0.00 0.00 91 1009.1
20260905065520 54 312 7.0 15.6 0.00 0.00 0.00 95 1008.8
20260905064525 54 321 5.2 12.2 0.00 0.00 0.00 94 1008.7
20260905063532 54 316 7.0 13.0 0.00 0.00 0.00 93 1008.7
20260905062517 55 322 6.1 17.4 0.00 0.00 0.00 91 1008.6
20260905061524 55 325 7.0 13.0 0.00 0.00 0.00 91 1008.7
20260905060532 55 331 6.1 13.0 0.00 0.00 0.00 92 1008.7
20260905055518 55 336 5.2 11.3 0.00 0.00 0.00 91 1008.7
20260905054524 54 342 5.2 10.4 0.00 0.00 0.00 92 1008.7
20260905053530 54 345 3.5 9.6 0.00 0.00 0.00 93 1008.9
20260905052537 54 335 2.6 9.6 0.00 0.00 0.00 94 1009.2
20260905051524 53 352 3.5 7.8 0.00 0.00 0.00 94 1009.3
20260905050529 53 351 2.6 7.8 0.00 0.00 0.00 94 1009.7
20260905045516 53 350 3.5 8.7 0.00 0.00 0.00 94 1010.2
20260905044522 53 354 3.5 7.8 0.00 0.00 0.00 93 1010.1
20260905043536 53 338 4.3 8.7 0.00 0.00 0.00 91 1010.5
20260905042534 54 322 6.1 14.8 0.00 0.00 0.00 91 1011.0
20260905041521 54 325 5.2 11.3 0.00 0.00 0.00 90 1011.4
20260905040535 54 294 5.2 9.6 0.00 0.00 0.00 89 1011.5
20260905035543 55 314 6.1 13.0 0.00 0.00 0.00 86 1011.8
20260905034522 55 289 5.2 13.9 0.00 0.00 0.00 87 1011.8
20260905033530 55 277 6.1 12.2 0.00 0.00 0.00 86 1011.9
20260905032534 56 284 7.0 16.5 0.00 0.00 0.00 84 1011.6
20260905031520 57 301 7.8 14.8 0.00 0.00 0.00 80 1012.0
20260905030542 58 312 5.2 13.0 0.00 0.00 0.00 77 1011.4
20260905025540 58 314 7.8 13.9 0.00 0.00 0.00 79 1011.4
20260905024519 58 297 7.8 15.6 0.00 0.00 0.00 78 1011.6
20260905023525 58 286 6.1 12.2 0.00 0.00 0.00 76 1011.6
20260905022520 58 290 5.2 8.7 0.00 0.00 0.00 83 1011.3
20260905021526 58 325 5.2 10.4 0.00 0.00 0.00 83 1011.3
20260905020533 57 332 4.3 11.3 0.00 0.00 0.00 84 1011.4
20260905015518 57 328 4.3 7.8 0.00 0.00 0.00 86 1011.5
20260905014524 57 345 3.5 7.0 0.00 0.00 0.00 87 1011.5
20260905013531 57 334 2.6 6.1 0.00 0.00 0.00 89 1011.9
20260905012535 56 348 2.6 6.1 0.00 0.00 0.00 90 1012.2
20260905011523 56 351 3.5 9.6 0.00 0.00 0.00 90 1012.1
20260905010529 55 335 2.6 5.2 0.00 0.00 0.00 92 1012.2
20260905005535 54 2 1.7 4.3 0.00 0.00 0.00 92 1012.4
20260905004523 54 2 2.6 5.2 0.00 0.00 0.00 93 1012.5
20260905003536 54 7 2.6 4.3 0.00 0.00 0.00 93 1012.8
20260905002517 53 2 2.6 7.0 0.00 0.00 0.00 92 1013.0
20260905001523 54 353 1.7 5.2 0.00 0.00 0.00 91 1013.5
20260905000539 54 346 1.7 5.2 0.00 0.00 0.00 90 1013.8
20260904235517 54 305 2.6 5.2 0.00 0.00 0.00 90 1013.9
20260904234523 54 334 3.5 7.0 0.00 0.00 0.00 89 1013.8
20260904233530 54 347 3.5 5.2 0.00 0.00 0.00 88 1013.4
20260904232536 53 350 2.6 5.2 0.00 0.00 0.00 90 1013.1
20260904231521 53 6 2.6 5.2 0.00 0.00 0.00 90 1013.6
20260904230528 54 360 3.5 6.1 0.00 0.00 0.00 86 1013.8
20260904225535 53 355 2.6 4.3 0.00 0.00 0.00 87 1014.1
20260904224521 53 359 3.5 6.1 0.00 0.00 0.00 87 1014.0
20260904223528 53 3 3.5 6.1 0.00 0.00 0.00 85 1014.1
20260904222534 54 357 2.6 5.2 0.00 0.00 0.00 82 1014.5
20260904221520 56 349 3.5 10.4 0.00 0.00 0.00 76 1014.6
20260904220526 55 351 2.6 5.2 0.00 0.00 0.00 78 1014.6
20260904215532 54 360 3.5 6.1 0.00 0.00 0.00 79 1014.6
20260904214517 53 9 3.5 5.2 0.00 0.00 0.00 80 1014.5
20260904213524 53 7 2.6 5.2 0.00 0.00 0.00 79 1014.5
20260904212537 52 31 1.7 3.5 0.00 0.00 0.00 80 1014.5
20260904211543 51 32 0.9 3.5 0.00 0.00 0.00 82 1014.4
20260904210521 51 38 1.7 3.5 0.00 0.00 0.00 83 1014.1
20260904205535 51 27 1.7 5.2 0.00 0.00 0.00 83 1014.2
20260904204533 50 12 2.6 5.2 0.00 0.00 0.00 84 1014.6
20260904203522 49 12 1.7 3.5 0.00 0.00 0.00 86 1014.5
20260904202527 49 25 1.7 4.3 0.00 0.00 0.00 87 1014.6
20260904201542 49 27 1.7 3.5 0.00 0.00 0.00 87 1014.4
20260904200523 49 33 1.7 3.5 0.00 0.00 0.00 87 1014.5
20260904195532 49 27 1.7 3.5 0.00 0.00 0.00 88 1014.5
20260904194526 49 43 0.9 2.6 0.00 0.00 0.00 88 1014.8
20260904193526 49 43 1.7 3.5 0.00 0.00 0.00 88 1015.1
20260904192542 49 47 1.7 3.5 0.00 0.00 0.00 88 1015.0
20260904191522 50 79 0.9 2.6 0.00 0.00 0.00 86 1015.2
20260904190531 50 341 0.9 2.6 0.00 0.00 0.00 86 1015.1
20260904185520 50 55 0.0 2.6 0.00 0.00 0.00 86 1015.0
20260904184526 50 332 0.9 3.5 0.00 0.00 0.00 86 1015.1
20260904183533 50 359 1.7 4.3 0.00 0.00 0.00 86 1015.0
20260904182522 50 358 2.6 4.3 0.00 0.00 0.00 86 1015.4
20260904181530 50 0 2.6 3.5 0.00 0.00 0.00 86 1015.1
20260904180519 50 28 1.7 3.5 0.00 0.00 0.00 86 1014.8
20260904175526 50 34 1.7 3.5 0.00 0.00 0.00 85 1015.2
20260904174534 51 19 3.5 5.2 0.00 0.00 0.00 84 1015.2
20260904173522 51 10 2.6 4.3 0.00 0.00 0.00 84 1015.3
20260904172530 51 2 1.7 5.2 0.00 0.00 0.00 84 1015.5
20260904171518 50 357 2.6 4.3 0.00 0.00 0.00 85 1015.3
20260904170526 50 13 1.7 4.3 0.00 0.00 0.00 85 1015.4
20260904165534 50 28 1.7 3.5 0.00 0.00 0.00 86 1015.7
20260904164537 50 76 1.7 2.6 0.00 0.00 0.00 87 1016.1
20260904163531 50 40 1.7 3.5 0.00 0.00 0.00 87 1016.2
20260904162517 50 12 1.7 4.3 0.00 0.00 0.00 87 1016.3
20260904161524 50 27 0.9 3.5 0.00 0.00 0.00 86 1016.4
20260904160531 52 17 1.7 3.5 0.00 0.00 0.00 82 1016.7
20260904155518 52 331 4.3 9.6 0.00 0.00 0.00 82 1016.7
20260904154525 51 316 2.6 7.0 0.00 0.00 0.00 85 1016.9
20260904153531 50 335 0.9 2.6 0.00 0.00 0.00 86 1016.5
20260904152518 51 344 2.6 5.2 0.00 0.00 0.00 85 1017.0
20260904151524 52 327 2.6 6.1 0.00 0.00 0.00 83 1017.1
20260904150532 52 321 4.3 8.7 0.00 0.00 0.00 83 1017.0
20260904145521 52 321 4.3 9.6 0.00 0.00 0.00 84 1017.3
20260904144530 51 319 3.5 7.8 0.00 0.00 0.00 84 1017.2
20260904143517 51 325 4.3 7.0 0.00 0.00 0.00 84 1017.1
20260904142524 51 328 5.2 10.4 0.00 0.00 0.00 85 1017.3
20260904141530 51 314 4.3 9.6 0.00 0.00 0.00 85 1017.4
20260904140517 51 310 4.3 8.7 0.00 0.00 0.00 86 1017.4
20260904135524 51 311 6.1 8.7 0.00 0.00 0.00 86 1017.5
20260904134538 51 312 3.5 6.1 0.00 0.00 0.00 86 1017.5
20260904133537 51 319 3.5 6.1 0.00 0.00 0.00 85 1017.6
20260904132523 52 300 3.5 7.0 0.00 0.00 0.00 85 1017.7
20260904131530 52 331 3.5 9.6 0.00 0.00 0.00 85 1017.7
20260904130536 52 307 3.5 6.1 0.00 0.00 0.00 85 1018.1
20260904125528 52 308 3.5 7.0 0.00 0.00 0.00 85 1018.3
20260904124528 52 308 3.5 6.1 0.00 0.00 0.00 85 1018.5
20260904123541 52 311 3.5 7.8 0.00 0.00 0.00 84 1018.6
20260904122518 52 299 3.5 7.0 0.00 0.00 0.00 84 1018.7
20260904121525 52 303 3.5 6.1 0.00 0.00 0.00 84 1019.0
20260904120533 53 312 3.5 7.0 0.00 0.00 0.00 82 1018.9
20260904115519 53 302 3.5 6.1 0.00 0.00 0.00 82 1019.0
20260904114525 53 297 3.5 7.0 0.00 0.00 0.00 81 1019.1
20260904113531 54 292 3.5 7.0 0.00 0.00 0.00 81 1019.1
20260904112518 54 301 3.5 7.0 0.00 0.00 0.00 80 1019.3
20260904111525 54 296 4.3 7.8 0.00 0.00 0.00 79 1019.4
20260904110532 54 300 5.2 9.6 0.00 0.00 0.00 80 1019.4
20260904105518 54 296 4.3 7.8 0.00 0.00 0.00 80 1019.5
20260904104525 54 301 5.2 9.6 0.00 0.00 0.00 80 1019.5
20260904103531 54 305 4.3 7.8 0.00 0.00 0.00 80 1019.5
20260904102518 54 307 5.2 8.7 0.00 0.00 0.00 79 1019.5
20260904101536 54 314 6.1 9.6 0.00 0.00 0.00 79 1019.4
20260904100532 54 308 5.2 9.6 0.00 0.00 0.00 79 1019.3
20260904095518 54 309 5.2 10.4 0.00 0.00 0.00 78 1019.2
20260904094525 54 313 6.1 11.3 0.00 0.00 0.00 78 1019.1
20260904093531 54 304 4.3 9.6 0.00 0.00 0.00 77 1019.3
20260904092516 54 307 4.3 8.7 0.00 0.00 0.00 77 1019.2
20260904091523 54 318 4.3 7.8 0.00 0.00 0.00 76 1019.2
20260904090530 55 305 4.3 8.7 0.00 0.00 0.00 75 1019.4
20260904085517 55 306 4.3 7.8 0.00 0.00 0.00 72 1019.3
20260904084524 55 292 4.3 10.4 0.00 0.00 0.00 72 1019.3